Volver al catálogo

SL-16 DEB

ActivoLEO
NORAD 19657·DEBRIS·🇷🇺 Russia

Lanzado Nov 23, 1988 desde Baikonur Cosmodrome

Loading…

Próximos Pases (próximas 24 horas)

TLE

ActualizadoSource: Space-Track

Época: Sep 14, 2026, 06:53 UTC

1 19657U 88102D   26257.28748001  .00000035  00000-0  72633-4 0  9992
2 19657  70.9840   1.6147 0208829  41.8045 349.1118 13.72212340891884

Sigue SL-16 DEB en tiempo real con AllMySat

Download on the App Store